Stations météo

réclame
Mon MeteoGroup
Brüssel, Belgique (6451): Température de l'air & dewpoint: 17.07.2018 09:00:00 - 23.07.2018 09:00:00 (CEST)Brüssel, Belgique (6451): Vitesse du vent & gusts: 17.07.2018 09:00:00 - 23.07.2018 09:00:00 (CEST)Brüssel, Belgique (6451): Direction du vent: 17.07.2018 09:00:00 - 23.07.2018 09:00:00 (CEST)Brüssel, Belgique (6451): reduced air pressure: 17.07.2018 09:00:00 - 23.07.2018 09:00:00 (CEST)Brüssel, Belgique (6451): visibility: 17.07.2018 09:00:00 - 23.07.2018 09:00:00 (CEST)
Date & Time tt [°C] td [°C] ff [km/h] ff [knt] fx [km/h] fx [knt] dd ppp [hPa] vv [km]
23.07.2018 09:00:00 22,3 13,4 9 5 14 8 WSW 1017,8 10
23.07.2018 08:00:00 21,4 12,9 9 5 - - W 1017,8 10
23.07.2018 07:00:00 20,4 14,5 5 3 7 4 SW 1017,6 10
23.07.2018 06:00:00 19,7 14,4 8 4 7 4 SSW 1017,5 10
23.07.2018 05:00:00 19,7 14,4 8 4 - - S 1017,3 10
23.07.2018 04:00:00 20,1 14,3 8 4 11 6 S 1017,3 10
23.07.2018 03:00:00 19,2 14,5 4 2 4 2 S 1017,5 10
23.07.2018 02:00:00 20,1 14,0 0 0 - - N 1017,4 10
23.07.2018 01:00:00 20,9 13,9 2 1 7 4 NNW 1017,5 10
23.07.2018 00:00:00 21,2 13,8 5 3 7 4 NNE 1017,4 10
22.07.2018 23:00:00 21,8 13,6 4 2 - - NNE 1017,2 50
22.07.2018 22:00:00 21,9 13,4 5 3 14 8 N 1016,7 10
22.07.2018 21:00:00 23,6 12,8 9 5 22 12 N 1016,2 10
22.07.2018 20:00:00 24,7 11,7 16 9 - - NNW 1015,9 10
22.07.2018 19:00:00 26,0 13,1 21 11 29 16 N 1015,4 10
22.07.2018 18:00:00 26,2 13,1 15 8 25 14 N 1015,4 10
22.07.2018 17:00:00 26,1 11,6 15 8 - - NW 1015,4 10
22.07.2018 16:00:00 27,2 10,9 9 5 25 14 WNW 1015,7 10
22.07.2018 15:00:00 26,4 11,1 11 6 22 12 NNW 1015,7 10
22.07.2018 14:00:00 26,6 10,1 8 4 - - - 1016,0 10
22.07.2018 13:00:00 25,7 9,2 5 3 22 12 - 1016,1 10
22.07.2018 12:00:00 24,5 8,3 5 3 18 10 - 1016,3 10
22.07.2018 11:00:00 23,1 9,0 4 2 - - - 1016,3 10
22.07.2018 10:00:00 22,0 8,0 4 2 11 6 - 1016,4 10
22.07.2018 09:00:00 19,9 10,9 4 2 7 4 - 1016,1 10
22.07.2018 08:00:00 17,0 11,9 5 3 - - WSW 1015,9 10
22.07.2018 07:00:00 13,8 10,5 8 4 11 6 WSW 1015,7 10
22.07.2018 06:00:00 13,1 10,0 5 3 11 6 W 1015,5 10
22.07.2018 05:00:00 15,2 10,0 9 5 - - W 1015,3 10
22.07.2018 04:00:00 15,1 10,2 9 5 11 6 W 1015,3 10
22.07.2018 03:00:00 15,3 10,1 8 4 11 6 WNW 1015,2 10
22.07.2018 02:00:00 16,2 10,1 4 2 - - WNW 1015,1 50
22.07.2018 01:00:00 17,0 10,2 8 4 14 8 WNW 1014,9 10
22.07.2018 00:00:00 18,2 10,2 9 5 14 8 WNW 1014,7 10
21.07.2018 23:00:00 19,2 10,3 11 6 - - WNW 1014,8 10
21.07.2018 22:00:00 20,5 11,1 13 7 22 12 NW 1014,2 10
21.07.2018 21:00:00 22,6 10,7 13 7 29 16 NNW 1013,6 10
21.07.2018 20:00:00 24,0 10,9 22 12 - - NW 1013,1 10
21.07.2018 19:00:00 24,4 10,3 18 10 29 16 NW 1012,8 10
21.07.2018 18:00:00 24,4 10,7 15 8 29 16 NNW 1012,9 10
21.07.2018 17:00:00 25,0 11,4 16 9 - - NNW 1012,8 10
21.07.2018 16:00:00 25,2 11,0 16 9 29 16 N 1012,6 10
21.07.2018 15:00:00 26,3 11,3 15 8 25 14 NW 1012,5 10
21.07.2018 14:00:00 25,0 11,2 13 7 - - WNW 1012,6 10
21.07.2018 13:00:00 25,4 12,7 9 5 25 14 NNW 1012,7 10
21.07.2018 12:00:00 24,1 12,8 9 5 18 10 NNW 1012,4 10
21.07.2018 11:00:00 22,2 16,0 9 5 - - WNW 1012,4 10
21.07.2018 10:00:00 19,8 15,9 8 4 11 6 NW 1012,7 10
21.07.2018 09:00:00 18,7 15,7 8 4 14 8 NW 1012,5 10
21.07.2018 08:00:00 18,5 15,3 9 5 - - NW 1012,1 10
21.07.2018 07:00:00 17,3 14,6 8 4 11 6 WNW 1011,8 10
21.07.2018 06:00:00 16,6 13,0 5 3 7 4 WNW 1011,7 10
21.07.2018 05:00:00 17,7 13,5 4 2 - - NW 1011,6 10
21.07.2018 04:00:00 17,9 13,1 4 2 4 2 NNW 1011,8 10
21.07.2018 03:00:00 18,4 13,4 2 1 4 2 N 1012,2 10
21.07.2018 02:00:00 18,8 12,7 2 1 - - - 1012,4 10
21.07.2018 01:00:00 19,1 12,6 8 4 11 6 N 1012,4 10
21.07.2018 00:00:00 19,6 11,8 8 4 14 8 NNW 1012,4 10
20.07.2018 23:00:00 20,2 10,2 9 5 - - NW 1012,7 10
20.07.2018 22:00:00 20,9 8,5 5 3 7 4 NNW 1012,8 10
20.07.2018 21:00:00 21,1 8,2 5 3 11 6 NNE 1012,7 10
20.07.2018 20:00:00 21,4 9,9 8 4 - - N 1012,5 10
20.07.2018 19:00:00 22,0 9,7 11 6 22 12 NW 1013,1 10
20.07.2018 18:00:00 22,9 8,5 15 8 25 14 NW 1013,5 10
20.07.2018 17:00:00 23,7 7,8 16 9 - - NW 1013,9 10
20.07.2018 16:00:00 24,3 7,3 15 8 25 14 NW 1014,1 10
20.07.2018 15:00:00 24,6 7,3 11 6 22 12 NW 1014,2 10
20.07.2018 14:00:00 24,9 7,1 9 5 - - N 1014,6 10
20.07.2018 13:00:00 25,1 7,0 8 4 18 10 N 1014,8 10
20.07.2018 12:00:00 24,3 10,3 9 5 14 8 NNE 1015,1 10
20.07.2018 11:00:00 21,8 11,3 4 2 - - - 1015,3 10
20.07.2018 10:00:00 19,0 13,1 4 2 11 6 - 1015,5 10
20.07.2018 09:00:00 17,9 12,8 4 2 7 4 - 1015,6 10
20.07.2018 08:00:00 15,3 12,1 5 3 - - NNE 1015,7 10
20.07.2018 07:00:00 13,3 10,7 0 0 7 4 N 1015,9 10
20.07.2018 06:00:00 13,6 9,2 4 2 11 6 NE 1016,0 10
20.07.2018 05:00:00 13,9 9,3 4 2 - - - 1016,3 10
20.07.2018 04:00:00 14,6 8,2 2 1 4 2 NNW 1016,5 10
20.07.2018 03:00:00 15,4 8,1 2 1 4 2 - 1016,8 10
20.07.2018 02:00:00 16,0 7,4 2 1 - - - 1017,3 10
20.07.2018 01:00:00 16,4 8,4 5 3 11 6 NNE 1017,5 10
20.07.2018 00:00:00 17,1 8,6 5 3 14 8 N 1017,7 10
19.07.2018 23:00:00 18,0 7,7 8 4 - - N 1017,6 10
19.07.2018 22:00:00 20,3 8,3 11 6 22 12 N 1017,5 10
19.07.2018 21:00:00 22,9 10,1 13 7 22 12 N 1017,3 10
19.07.2018 20:00:00 24,3 11,4 13 7 - - N 1017,1 10
19.07.2018 19:00:00 25,2 10,8 11 6 22 12 N 1017,1 10
19.07.2018 18:00:00 25,9 10,7 15 8 22 12 N 1017,4 10
19.07.2018 17:00:00 25,7 9,8 8 4 - - - 1017,9 10
19.07.2018 16:00:00 24,9 10,7 5 3 18 10 NNE 1018,3 10
19.07.2018 15:00:00 25,5 10,4 2 1 14 8 - 1018,3 10
19.07.2018 14:00:00 25,2 9,9 2 1 - - - 1018,6 10
19.07.2018 13:00:00 24,4 10,5 7 4 14 8 N 1019,0 35
19.07.2018 12:00:00 23,6 12,0 5 3 14 8 - 1019,1 10
19.07.2018 11:00:00 21,8 12,3 5 3 - - N 1019,4 10
19.07.2018 10:00:00 20,5 13,5 5 3 11 6 N 1019,6 10
19.07.2018 09:00:00 18,2 12,3 8 4 11 6 NNE 1019,6 10
19.07.2018 08:00:00 17,2 12,7 2 1 - - - 1019,5 10
19.07.2018 07:00:00 13,0 10,9 2 1 4 2 - 1019,4 10
19.07.2018 06:00:00 12,8 10,3 4 2 7 4 W 1019,1 10
19.07.2018 05:00:00 13,8 10,8 5 3 - - NW 1019,3 10
19.07.2018 04:00:00 13,0 10,4 4 2 4 2 S 1019,2 10
19.07.2018 03:00:00 13,5 10,4 2 1 4 2 S 1019,5 10
19.07.2018 02:00:00 16,7 11,4 4 2 - - ESE 1019,6 10
19.07.2018 01:00:00 17,2 11,3 4 2 11 6 ENE 1019,6 10
19.07.2018 00:00:00 16,8 11,5 5 3 11 6 NNE 1019,6 10
18.07.2018 23:00:00 18,6 11,9 8 4 - - N 1019,4 10
18.07.2018 22:00:00 20,1 12,2 11 6 22 12 NNW 1019,0 10
18.07.2018 21:00:00 21,9 12,2 15 8 25 14 NNW 1018,7 10
18.07.2018 20:00:00 23,6 11,9 15 8 - - NNW 1018,4 10
18.07.2018 19:00:00 23,3 10,1 8 4 14 8 NNE 1018,4 10
18.07.2018 18:00:00 23,7 10,6 9 5 18 10 NW 1018,6 10
18.07.2018 17:00:00 23,8 10,0 9 5 - - N 1018,7 10
18.07.2018 16:00:00 24,2 9,7 8 4 22 12 - 1018,9 10
18.07.2018 15:00:00 23,7 9,7 8 4 22 12 NW 1019,1 10
18.07.2018 14:00:00 23,2 10,1 9 5 - - - 1019,2 10
18.07.2018 13:00:00 23,3 8,9 11 6 29 16 - 1019,5 10
18.07.2018 12:00:00 21,9 8,3 13 7 25 14 W 1019,6 10
18.07.2018 11:00:00 20,7 9,7 8 4 - - WSW 1019,6 10
18.07.2018 10:00:00 20,3 10,2 4 2 11 6 - 1019,6 10
18.07.2018 09:00:00 19,1 11,7 2 1 7 4 - 1019,5 10
18.07.2018 08:00:00 17,3 12,9 2 1 - - - 1019,3 10
18.07.2018 07:00:00 13,3 10,3 2 1 4 2 W 1019,2 10
18.07.2018 06:00:00 11,3 9,3 5 3 4 2 S 1019,1 10
18.07.2018 05:00:00 11,7 9,1 0 0 - - N 1019,0 10
18.07.2018 04:00:00 12,8 9,5 4 2 4 2 W 1019,1 10
18.07.2018 03:00:00 12,5 9,4 2 1 4 2 S 1019,1 10
18.07.2018 02:00:00 15,2 9,8 2 1 - - NE 1019,0 10
18.07.2018 01:00:00 15,4 9,1 4 2 7 4 WNW 1019,1 10
18.07.2018 00:00:00 17,1 8,2 2 1 7 4 NE 1018,7 10
17.07.2018 23:00:00 18,1 9,6 5 3 - - N 1018,4 10
17.07.2018 22:00:00 18,9 9,2 8 4 18 10 N 1018,0 10
17.07.2018 21:00:00 21,3 8,7 13 7 29 16 NNW 1017,5 10
17.07.2018 20:00:00 22,6 8,4 18 10 - - NW 1017,1 10
17.07.2018 19:00:00 23,4 9,2 21 11 32 18 NW 1016,8 10
17.07.2018 18:00:00 23,8 9,6 22 12 36 19 WNW 1016,6 10
17.07.2018 17:00:00 25,9 9,0 18 10 - - W 1016,5 10
17.07.2018 16:00:00 25,3 10,2 18 10 32 18 W 1016,4 10
17.07.2018 15:00:00 24,7 10,6 16 9 32 18 W 1016,6 10
17.07.2018 14:00:00 24,2 12,9 16 9 - - WSW 1016,6 10
17.07.2018 13:00:00 23,7 13,8 15 8 25 14 WSW 1016,5 10
17.07.2018 12:00:00 22,9 14,0 15 8 29 16 W 1016,4 10
17.07.2018 11:00:00 22,0 14,4 11 6 - - W 1016,1 10
17.07.2018 10:00:00 20,1 13,3 15 8 22 12 WSW 1015,8 10
17.07.2018 09:00:00 19,1 12,6 15 8 25 14 WSW 1015,6 10

tt = Température de l'air
td = dewpoint
ff = Vitesse du vent
fx = gusts
dd = Direction du vent
ppp = reduced air pressure
vv = visibility

stations d'obs. à proximité